Fremont, MI

7:47 AM EST on November 19, 2019 (GMT -0500)
Fremont

Weather History for KFFX - October, 2019

Change the Weather History Date:

Wednesday, October 23, 2019

  Actual Average (KMKG) Record (KMKG)
Temperature  
Mean Temperature 48 °F -  
Max Temperature 54 °F 57 °F 80 °F (1963)
Min Temperature 43 °F 40 °F 25 °F (1982)
Degree Days  
Heating Degree Days 16    
Moisture  
Dew Point 38 °F    
Average Humidity 73    
Maximum Humidity 100    
Minimum Humidity 40    
Precipitation  
Precipitation 0.00 in - - ()
Sea Level Pressure  
Sea Level Pressure 29.84 in    
Wind  
Wind Speed 9 mph ()    
Max Wind Speed 20 mph    
Max Gust Speed 26 mph    
Visibility 9.9 miles    
Events Rain    
Averages and records for this station are not official NWS values.
T = Trace of Precipitation, MM = Missing Value Source: Averaged Metar Reports

Daily Weather History Graph

Daily Weather History Graph

Search for Another Location

Airport or City:

Astronomy

Oct. 23, 2019 Rise Set
Actual Time 8:07 AM EDT 6:48 PM EDT
Civil Twilight 7:38 AM EDT 7:17 PM EDT
Nautical Twilight 7:05 AM EDT 7:50 PM EDT
Astronomical Twilight 6:31 AM EDT 8:23 PM EDT
Moon 2:12 AM EDT (10/23) 4:50 PM EDT (10/23)
Length of Visible Light 11h 39m
Length of Day
10h 40m
Waning Crescent, 27% of the Moon is Illuminated
Oct 23
Waning Crescent
Oct 27
New
Nov 4
First Quarter
Nov 12
Full
Nov 19
Last Quarter

Hourly Weather History & Observations

Time (EDT) Temp. Windchill Dew Point Humidity Pressure Visibility Wind Dir Wind Speed Gust Speed Precip Events Conditions
12:15 AM 43.9 °F 39.9 °F 43.9 °F 100% 29.67 in 7.0 mi West 6.9 mph - N/A Rain Light Rain
12:35 AM 44.4 °F 38.6 °F 44.4 °F 100% 29.67 in 10.0 mi WSW 11.5 mph 16.1 mph N/A Rain Rain
12:36 AM 44.6 °F 38.8 °F 44.6 °F 100% 29.67 in 10.0 mi West 11.5 mph 16.1 mph N/A Rain Rain
12:59 AM 45.1 °F 39.1 °F 45.1 °F 100% 29.66 in 10.0 mi West 12.7 mph 19.6 mph N/A   Overcast
1:17 AM 45.5 °F 40.3 °F 44.8 °F 97% 29.67 in 10.0 mi West 10.4 mph 20.7 mph N/A   Overcast
1:35 AM 45.5 °F 41.3 °F 45.1 °F 99% 29.67 in 10.0 mi West 8.1 mph - N/A   Overcast
1:36 AM 45.5 °F 41.3 °F 45.1 °F 99% 29.67 in 10.0 mi West 8.1 mph - N/A   Overcast
1:55 AM 45.3 °F 42.3 °F 45.3 °F 100% 29.67 in 10.0 mi WSW 5.8 mph - N/A   Overcast
2:15 AM 45.0 °F 41.8 °F 45.0 °F 100% 29.68 in 7.0 mi WNW 5.8 mph - N/A Rain Heavy Rain
2:38 AM 44.6 °F 42.2 °F 44.6 °F 100% 29.69 in 10.0 mi West 4.6 mph - N/A Rain Light Rain
2:56 AM 44.6 °F 43.1 °F 44.6 °F 100% 29.69 in 10.0 mi WSW 3.5 mph - N/A   Overcast
3:15 AM 44.8 °F 43.3 °F 44.8 °F 100% 29.69 in 10.0 mi SW 3.5 mph - N/A   Overcast
3:35 AM 44.6 °F 43.1 °F 44.6 °F 100% 29.69 in 10.0 mi SW 3.5 mph - N/A   Overcast
3:59 AM 45.1 °F 40.8 °F 44.8 °F 99% 29.70 in 10.0 mi WSW 8.1 mph - N/A   Overcast
4:16 AM 45.7 °F 41.5 °F 39.2 °F 78% 29.70 in 10.0 mi WSW 8.1 mph - N/A   Overcast
4:35 AM 45.5 °F 41.3 °F 38.1 °F 75% 29.70 in 10.0 mi WSW 8.1 mph - N/A   Overcast
4:36 AM 45.5 °F 40.8 °F 38.1 °F 75% 29.70 in 10.0 mi WSW 9.2 mph - N/A   Overcast
4:55 AM 46.4 °F 41.1 °F 35.8 °F 67% 29.70 in 10.0 mi WSW 11.5 mph 19.6 mph N/A   Overcast
4:56 AM 46.4 °F 41.1 °F 35.8 °F 67% 29.70 in 10.0 mi WSW 11.5 mph 19.6 mph N/A   Overcast
5:15 AM 46.6 °F - 35.8 °F 66% 29.71 in 10.0 mi WSW 12.7 mph 21.9 mph N/A   Overcast
5:38 AM 46.4 °F 41.1 °F 36.0 °F 67% 29.72 in 10.0 mi WSW 11.5 mph 17.3 mph N/A   Overcast
5:56 AM 46.4 °F 40.7 °F 35.8 °F 67% 29.72 in 10.0 mi WSW 12.7 mph 19.6 mph N/A   Overcast
6:15 AM 46.4 °F 40.7 °F 35.6 °F 66% 29.73 in 10.0 mi WSW 12.7 mph 19.6 mph N/A   Overcast
6:35 AM 45.9 °F 40.4 °F 35.4 °F 67% 29.74 in 10.0 mi WSW 11.5 mph - N/A   Overcast
6:36 AM 46.0 °F 41.0 °F 35.4 °F 66% 29.74 in 10.0 mi WSW 10.4 mph - N/A   Overcast
6:59 AM 46.0 °F 41.9 °F 35.2 °F 66% 29.75 in 10.0 mi WSW 8.1 mph - N/A   Overcast
7:17 AM 45.9 °F 41.2 °F 35.1 °F 66% 29.76 in 10.0 mi WSW 9.2 mph - N/A   Overcast
7:35 AM 45.9 °F 40.0 °F 35.1 °F 66% 29.77 in 10.0 mi WSW 12.7 mph 16.1 mph N/A   Overcast
7:55 AM 45.7 °F 40.2 °F 35.4 °F 67% 29.78 in 10.0 mi WSW 11.5 mph 21.9 mph N/A   Overcast
7:56 AM 45.7 °F 40.6 °F 35.6 °F 68% 29.78 in 10.0 mi WSW 10.4 mph 21.9 mph N/A   Overcast
8:15 AM 45.1 °F 39.5 °F 35.6 °F 69% 29.79 in 10.0 mi WSW 11.5 mph 19.6 mph N/A   Overcast
8:20 AM 45.0 °F 38.9 °F 35.6 °F 70% 29.79 in 10.0 mi WSW 12.7 mph 17.3 mph N/A   Overcast
8:38 AM 45.0 °F 39.3 °F 35.8 °F 70% 29.80 in 10.0 mi WSW 11.5 mph 19.6 mph N/A   Overcast
8:56 AM 44.6 °F 40.2 °F 35.8 °F 71% 29.81 in 10.0 mi WSW 8.1 mph 17.3 mph N/A   Mostly Cloudy
9:15 AM 45.1 °F 40.3 °F 36.1 °F 71% 29.82 in 10.0 mi WSW 9.2 mph - N/A   Clear
9:16 AM 45.3 °F 40.6 °F 36.1 °F 70% 29.82 in 10.0 mi WSW 9.2 mph - N/A   Clear
9:35 AM 46.4 °F 40.4 °F 36.3 °F 68% 29.83 in 10.0 mi WSW 13.8 mph 19.6 mph N/A   Clear
9:59 AM 47.3 °F - 36.1 °F 65% 29.83 in 10.0 mi WSW 12.7 mph 19.6 mph N/A   Scattered Clouds
10:17 AM 48.0 °F - 36.9 °F 65% 29.84 in 10.0 mi WSW 9.2 mph 16.1 mph N/A   Mostly Cloudy
10:35 AM 48.2 °F - 36.1 °F 63% 29.85 in 10.0 mi WSW 16.1 mph 25.3 mph N/A   Scattered Clouds
10:55 AM 47.5 °F - 35.6 °F 63% 29.85 in 10.0 mi WSW 15.0 mph 23.0 mph N/A   Scattered Clouds
11:15 AM 48.2 °F - 35.6 °F 62% 29.87 in 10.0 mi West 12.7 mph 21.9 mph N/A   Scattered Clouds
11:38 AM 48.6 °F - 36.0 °F 62% 29.87 in 10.0 mi WSW 17.3 mph 24.2 mph N/A   Scattered Clouds
11:56 AM 47.5 °F - 35.6 °F 63% 29.88 in 10.0 mi WSW 12.7 mph 23.0 mph N/A   Scattered Clouds
12:15 PM 48.6 °F - 36.0 °F 62% 29.89 in 10.0 mi WSW 10.4 mph 21.9 mph N/A   Scattered Clouds
12:16 PM 48.7 °F - 36.0 °F 61% 29.89 in 10.0 mi WSW 12.7 mph 21.9 mph N/A   Scattered Clouds
12:35 PM 50.4 °F - 36.5 °F 59% 29.89 in 10.0 mi WSW 13.8 mph 24.2 mph N/A   Scattered Clouds
12:59 PM 51.1 °F - 35.4 °F 55% 29.89 in 10.0 mi WSW 15.0 mph 23.0 mph N/A   Mostly Cloudy
1:17 PM 52.3 °F - 36.0 °F 54% 29.89 in 10.0 mi WSW 15.0 mph 21.9 mph N/A   Scattered Clouds
1:35 PM 52.9 °F - 36.0 °F 53% 29.89 in 10.0 mi West 12.7 mph 18.4 mph N/A   Scattered Clouds
1:36 PM 52.9 °F - 35.8 °F 52% 29.89 in 10.0 mi West 15.0 mph 21.9 mph N/A   Scattered Clouds
1:55 PM 53.1 °F - 35.6 °F 52% 29.89 in 10.0 mi WSW 15.0 mph 23.0 mph N/A   Scattered Clouds
1:56 PM 53.1 °F - 35.2 °F 51% 29.89 in 10.0 mi WSW 17.3 mph 23.0 mph N/A   Scattered Clouds
2:15 PM 52.9 °F - 34.5 °F 50% 29.89 in 10.0 mi WSW 13.8 mph 26.5 mph N/A   Scattered Clouds
2:20 PM 53.2 °F - 34.5 °F 49% 29.89 in 10.0 mi WSW 15.0 mph 26.5 mph N/A   Scattered Clouds
2:38 PM 53.2 °F - 34.5 °F 49% 29.89 in 10.0 mi SW 19.6 mph 26.5 mph N/A   Clear
2:56 PM 52.9 °F - 33.4 °F 48% 29.89 in 10.0 mi WSW 11.5 mph 23.0 mph N/A   Clear
3:15 PM 53.6 °F - 32.0 °F 44% 29.90 in 10.0 mi WSW 18.4 mph 24.2 mph N/A   Clear
3:36 PM 53.4 °F - 29.5 °F 40% 29.90 in 10.0 mi WSW 13.8 mph 19.6 mph N/A   Clear
3:59 PM 53.2 °F - 29.8 °F 41% 29.91 in 10.0 mi West 16.1 mph 21.9 mph N/A   Clear
4:17 PM 53.6 °F - 31.5 °F 43% 29.90 in 10.0 mi WSW 10.4 mph 20.7 mph N/A   Clear
4:35 PM 54.0 °F - 31.1 °F 42% 29.90 in 10.0 mi WSW 11.5 mph 17.3 mph N/A   Clear
4:55 PM 53.6 °F - 30.2 °F 41% 29.90 in 10.0 mi WSW 8.1 mph - N/A   Clear
5:15 PM 53.6 °F - 31.3 °F 43% 29.90 in 10.0 mi West 9.2 mph - N/A   Clear
5:20 PM 52.9 °F - 30.9 °F 43% 29.91 in 10.0 mi WSW 8.1 mph - N/A   Clear
5:38 PM 52.9 °F - 32.7 °F 46% 29.91 in 10.0 mi WSW 12.7 mph - N/A   Clear
5:56 PM 51.6 °F - 35.2 °F 54% 29.92 in 10.0 mi SW 9.2 mph - N/A   Clear
6:15 PM 50.5 °F - 36.0 °F 57% 29.92 in 10.0 mi SW 6.9 mph - N/A   Clear
6:59 PM 47.5 °F - 36.5 °F 66% 29.94 in 10.0 mi Calm Calm - N/A   Clear
7:17 PM 46.6 °F - 36.5 °F 68% 29.94 in 10.0 mi South 3.5 mph - N/A   Clear
7:35 PM 46.8 °F - 37.0 °F 69% 29.95 in 10.0 mi Calm Calm - N/A   Clear
7:55 PM 44.4 °F - 37.2 °F 76% 29.94 in 10.0 mi Calm Calm - N/A   Clear
8:15 PM 43.9 °F - 39.7 °F 85% 29.95 in 10.0 mi Calm Calm - N/A   Clear
8:38 PM 44.4 °F - 39.0 °F 81% 29.95 in 10.0 mi Calm Calm - N/A   Mostly Cloudy
8:56 PM 44.6 °F - 42.8 °F 93% 29.96 in 10.0 mi Calm Calm - N/A   Overcast
9:15 PM 45.0 °F - 45.0 °F 100% 29.99 in 10.0 mi Calm Calm - N/A   Overcast
9:16 PM 45.0 °F - 45.0 °F 100% 29.99 in 10.0 mi Calm Calm - N/A   Light Drizzle
9:35 PM 45.5 °F - 45.5 °F 100% 29.99 in 10.0 mi Calm Calm - N/A Rain Rain
9:36 PM 45.5 °F - 45.5 °F 100% 29.99 in 10.0 mi Calm Calm - N/A Rain Rain
9:59 PM 45.0 °F 43.5 °F 45.0 °F 100% 29.97 in 10.0 mi NE 3.5 mph - N/A   Overcast
10:17 PM 45.1 °F - 45.1 °F 100% 29.98 in 10.0 mi Calm Calm - N/A Rain Light Rain
10:35 PM 45.5 °F - 45.5 °F 100% 29.99 in 10.0 mi Calm Calm - N/A Rain Rain
10:55 PM 45.9 °F - 45.9 °F 100% 29.99 in 10.0 mi Calm Calm - N/A Rain Rain
11:15 PM 46.0 °F 44.8 °F 46.0 °F 100% 29.98 in 10.0 mi North 3.5 mph - N/A Rain Light Rain
11:38 PM 45.1 °F 42.8 °F 45.1 °F 100% 29.96 in 10.0 mi North 4.6 mph - N/A Rain Light Rain
11:56 PM 44.8 °F 38.3 °F 44.8 °F 100% 29.98 in 10.0 mi NNW 13.8 mph 18.4 mph N/A Rain Rain